Regional Weather Roundup
Issued by NWS

Home | Current Version | Previous Version | Graphics & Text | Print | Product List | Glossary On
Versions: 1 2 3 4 5 6 7 8 9 10 11 12 13 14 15 16 17 18 19 20 21 22 23 24 25 26 27 28 29 30 31 32 33 34 35 36 37 38 39 40 41 42 43 44 45 46 47 48 49 50
000
ASUS43 KIND 230109
RWRIN

WEATHER ROUNDUP FOR INDIANA
NATIONAL WEATHER SERVICE INDIANAPOLIS IN
900 PM EDT TUE APR 22 2014

NOTE: "FAIR" INDICATES FEW OR NO CLOUDS BELOW 12,000 FEET WITH NO
SIGNIFICANT WEATHER AND/OR OBSTRUCTIONS TO VISIBILITY.

* - STATION DOES NOT REPORT WEATHER SUCH AS PRECIPITATION OR FOG.

+ - STATION NOT QUALITY CONTROLLED BY THE NATIONAL WEATHER SERVICE.
    USE DATA WITH CAUTION...ESPECIALLY DEWPOINT AND RELATIVE
    HUMIDITY OBSERVATIONS.

INZ001>003-010>013-019-020-230200-
NORTHWEST INDIANA

CITY           SKY/WX    TMP DP  RH WIND       PRES   REMARKS
GARY /AIRPORT/ PTCLDY    43  30  61 E6G21     30.03R
LA PORTE +     CLEAR     41  27  57 N12       30.01R
MICHIGAN CITY+ CLEAR     39  28  65 N6        30.02R
MONTICELLO +   CLEAR     49  33  53 N9G16     29.97R
RENSSELAER +   CLEAR     45  32  61 N10       29.99R
VALPARAISO     CLEAR     41  28  60 N8        30.02R

$$

LMZ046-743>745-230200-
SOUTHERN LAKE MICHIGAN

STATION/POSITION TIME  TEMP WIND        PRES
                       AIR  DIR/SP/G
                 (UTC) (F)  (DEG/KT/KT) (MB)
MICHIGAN CITY    0100   41   10/  9/ 12   N/A

$$

INZ004-005-014>016-021>024-230200-
NORTH CENTRAL INDIANA

CITY           SKY/WX    TMP DP  RH WIND       PRES   REMARKS
ELKHART        CLEAR     45  28  53 NW5       29.98R
GOSHEN         CLEAR     46  30  53 NW10      29.97R
LOGANSPORT +   CLEAR     46  32  57 N10G16    29.98R
PERU/GRISSOM   CLEAR     48  34  56 N8        29.96R
ROCHESTER +    CLEAR     46  32  57 NW7       29.98R
SOUTH BEND     CLEAR     43  28  55 N10       30.00R
WARSAW +       CLEAR     45  32  61 NW9       29.97R

$$

INZ006>009-017-018-025>027-230200-
NORTHEAST INDIANA

CITY           SKY/WX    TMP DP  RH WIND       PRES   REMARKS
ANGOLA *+      CLEAR     45  28  53 N10       29.93S
AUBURN +       CLEAR     45  28  53 NW6       29.95S
FORT WAYNE     PTCLDY    46  30  53 NW10      29.96R

$$

INZ028-029-035-036-043>045-051>053-230200-
WEST CENTRAL INDIANA

CITY           SKY/WX    TMP DP  RH WIND       PRES   REMARKS
GREENCASTLE +  PTCLDY    54  32  43 N7        29.95R
LAFAYETTE      CLEAR     52  34  50 N8        29.96R
TERRE HAUTE    PTCLDY    57  34  41 N7        29.95R

$$

INZ030>032-037>040-046>048-054>057-064-065-230200-
CENTRAL INDIANA

CITY           SKY/WX    TMP DP  RH WIND       PRES   REMARKS
CP ATTERBURY + CLEAR     52  32  46 N6        29.95R
GREENWOOD *+   CLEAR     50  32  50 NE8       29.96
INDIANAPOLIS   PTCLDY    50  31  48 N8        29.94R
-EAGLE CREEK   CLEAR     50  31  48 N7        29.95R
KOKOMO *+      CLEAR     48  30  49 N10       29.97R
MARION +       CLEAR     47  29  49 N6        29.97R
MT COMFORT *+  CLEAR     48  32  53 N9        29.96R
SHELBYVILLE    CLEAR     52  30  43 N9        29.95R
ZIONSVILLE +   CLEAR     47  31  53 NE6       29.96R

$$

INZ033-034-041-042-049-050-058-059-230200-
EAST CENTRAL INDIANA

CITY           SKY/WX    TMP DP  RH WIND       PRES   REMARKS
MUNCIE         CLEAR     47  30  51 N12       29.96R

$$

INZ060-061-067>069-081>083-085>088-230200-
SOUTHWEST INDIANA

CITY           SKY/WX    TMP DP  RH WIND       PRES   REMARKS
EVANSVILLE     CLEAR     63  37  38 NW3       29.94R
HUNTINGBURG *+ CLEAR     59  37  44 N7        29.94R
WASHINGTON +   CLEAR     59  37  43 N9        29.93R

$$

INZ062-063-066-070>080-084-089>092-230200-
SOUTH CENTRAL AND SOUTHEAST INDIANA

CITY           SKY/WX    TMP DP  RH WIND       PRES   REMARKS
BEDFORD +      CLEAR     59  25  27 N6        29.93
BLOOMINGTON    PTCLDY    57  33  40 CALM      29.93R
SEYMOUR +      CLEAR     54  19  26 N13       29.93R

$$




USA.gov is the U.S. government's official web portal to all federal, state and local government web resources and services.